Overview Statistics Trail Chart Weather Telemetry Raw packets
 

This is the latest recevied weather packets stored in our database for station/object N2VUZ-1. If no packets are shown the sender has not sent any weather packets the latest 10 day(s).

<< 1 2 3 4 5 6 7 >>
Time Temp. Humidity Pressure Rain* Wind** Luminosity Snow
1788292761 31.67° C 61% 1014.2 hPa 0 mm - - -
1788292461 31.11° C 63% 1014.3 hPa 0 mm - - -
1788292161 31.11° C 62% 1014.6 hPa 0 mm - - -
1788291861 31.67° C 62% 1014.4 hPa 0 mm - - -
1788291561 31.67° C 61% 1014.4 hPa 0 mm - - -
1788291261 32.22° C 55% 1014.5 hPa 0 mm - - -
1788290961 32.78° C 58% 1014.5 hPa 0 mm - - -
1788290661 32.78° C 57% 1014.3 hPa 0 mm - - -
1788290361 32.22° C 57% 1014.3 hPa 0 mm - - -
1788290061 32.22° C 57% 1014.2 hPa 0 mm - - -
1788289761 32.22° C 58% 1014.4 hPa 0 mm - - -
1788289461 31.67° C 59% 1014.3 hPa 0 mm - - -
1788289161 31.67° C 61% 1014.1 hPa 0 mm - - -
1788288861 31.67° C 64% 1014.3 hPa 0 mm - - -
1788288561 31.67° C 60% 1014.5 hPa 0 mm - - -
1788288261 31.67° C 57% 1014.6 hPa 0 mm - - -
1788287961 32.22° C 55% 1014.6 hPa 0 mm - - -
1788287661 32.78° C 54% 1014.5 hPa 0 mm - - -
1788287361 33.33° C 52% 1014.5 hPa 0 mm - - -
1788287061 33.33° C 54% 1014.4 hPa 0 mm - - -
1788286761 32.78° C 56% 1014.6 hPa 0 mm - - -
1788286461 32.78° C 55% 1014.6 hPa 0 mm - - -
1788286161 33.89° C 55% 1014.5 hPa 0 mm - - -
1788285861 33.89° C 57% 1014.6 hPa 0 mm - - -
1788285561 33.33° C 56% 1014.7 hPa 0 mm - - -

* Rain latest hour (hover to see other rain measurements)
** Current wind speed in m/s (hover to see current wind gust speed)